{"data":{"norad_id":51864,"epoch":"2026-05-24T22:51:27.151776Z","epoch_age_seconds":83141,"freshness":"FRESH","line1":"1 51864U 22022N   26144.95239759 -.00000486  00000+0 -12444-4 0  9996","line2":"2 51864  53.2172  26.6862 0001352  93.4693 266.6454 15.08838315234678","mean_motion":15.08838315,"eccentricity":0.0001352,"inclination_deg":53.2172,"raan_deg":26.6862,"arg_perigee_deg":93.4693,"mean_anomaly_deg":266.6454,"bstar":-1.2444e-5,"rev_number":23467,"period_min":95.437661257959,"perigee_km":538.81324121488,"apogee_km":540.68383746472,"semimajor_km":6917.8855393398,"source":"CELESTRAK","updated_at":"2026-05-25T13:38:16.961803Z"}}